Flag for Sudan Weather past 2 weeks in Port Sudan, Sudan

Now
82 °F

Sunny.


Feels Like: 82 °F
Forecast: 72 / 83 °F
Wind: 5 mph from Northeast

Location: Jeddah King Abdul Aziz International Airport

Current Time: Dec 28, 2014 at 10:34:40 AM

Latest Report: Dec 28, 2014 at 10:00 AM


Visibility: 10 mi

Pressure: 30.04 "Hg

Humidity: 45%

Dew point: 59 °F

Location of Port SudanLocation

Historic Weather in Port Sudan — Graph

°F

Port Sudan temperature yesterday

Maximum temperature yesterday: 88 °F (at 12:00 PM)
Minimum temperature yesterday: 72 °F (at 6:00 AM)
Average temperature yesterday: 80 °F

Past Weeks' High & Low Weather Summary

 TemperatureHumidityPressure
High91 °F (Dec 17, 3:00 PM)94% (Dec 27, 4:00 AM)30.04 "Hg (Dec 27, 4:00 AM)
Low66 °F (Dec 24, 7:00 AM)24% (Dec 18, 12:00 PM)29.86 "Hg (Dec 13, 3:00 PM)
Average80 °F58%29.95 "Hg
* Reported Dec 13 9:00 AM — Dec 28 9:00 AM, Port Sudan, Weather by CustomWeather, © 2014

Note: Actual official high and low records may vary slightly from our data, if they occured in-between our weather recording intervals... More about our weather records

Advertising

Port Sudan weather history for previous 24 hours

 ConditionsComfort  
Time TempWeatherWind HumidityBarometerVisibility
9:00 AM
Dec 28
79 °FSunny.5 mph65%30.01 "Hg10 mi
8:00 AM73 °FSunny.No wind89%30.01 "Hg5 mi
7:00 AM73 °FSunny.5 mph83%29.98 "Hg4 mi
6:00 AM72 °FPassing clouds.No wind88%29.95 "HgN/A
5:00 AM73 °FPassing clouds.No wind83%29.95 "HgN/A
4:00 AM75 °FPassing clouds.5 mph83%29.95 "HgN/A
3:00 AM77 °FPassing clouds.5 mph79%29.95 "HgN/A
2:00 AM77 °FPassing clouds.5 mph79%29.95 "HgN/A
1:00 AM79 °FPassing clouds.5 mph70%29.95 "HgN/A
12:00 AM79 °FPassing clouds.5 mph74%29.95 "HgN/A
11:00 PM
Dec 27
79 °FPassing clouds.No wind74%29.95 "HgN/A
10:00 PM81 °FPassing clouds.5 mph70%29.95 "HgN/A
9:00 PM81 °FPassing clouds.5 mph70%29.95 "HgN/A
8:00 PM81 °FPassing clouds.9 mph70%29.95 "HgN/A
7:00 PM82 °FPassing clouds.9 mph62%29.92 "HgN/A
6:00 PM82 °FPassing clouds.12 mph62%29.92 "HgN/A
5:00 PM84 °FPassing clouds.14 mph58%29.89 "HgN/A
4:00 PM86 °FPassing clouds.17 mph55%29.89 "HgN/A
3:00 PM86 °FPassing clouds.21 mph55%29.89 "HgN/A
2:00 PM88 °FPassing clouds.14 mph52%29.89 "HgN/A
1:00 PM88 °FPassing clouds.12 mph52%29.92 "HgN/A
12:00 PM88 °FPassing clouds.9 mph52%29.95 "HgN/A
11:00 AM86 °FPassing clouds.5 mph55%29.98 "HgN/A
10:00 AM82 °FSunny.No wind62%29.98 "Hg10 mi
Weather by CustomWeather, © 2014

See weather overviewHow to use our weather pages